Preview of NWS' New Version of Forecast
This preview is not operational and should not be used for support decisions.
Latest weather observations around

Jonesboro, Jonesboro Municipal Airport (KJBR)

Using English Units (Switch to International System of Units)
Date/ Time (CDT) Wind (mph) Vis. (mi) Weather Sky Cond. Temp (°F) Rel. Humidity Wind Chill (°F) Heat Index (°F) Pressure Precip. (in)
Air Dwpt 6 hour Altimeter (inHg) Sea level (inHg) 1 hr 3 hr 6 hr
Max Min
Jun 18 07:53 SSW 10 10 Clear CLR 81 74     79%   86 30.12 30.11      
Jun 18 06:53 SSW 9 10 Clear CLR 78 73     85%   80 30.09 30.08      
Jun 18 05:53 SSW 6 10 Clear CLR 76 73     91%   77 30.08 30.07      
Jun 18 04:53 SSW 6 10 Clear CLR 77 74     90%   79 30.07 30.05      
Jun 18 03:53 SSW 6 10 Clear CLR 78 74     87%   80 30.05 30.04      
Jun 18 02:53 SW 9 10 Clear CLR 80 74     82%   85 30.05 30.03      
Jun 18 01:53 SSW 8 10 Clear CLR 81 74     79%   86 30.05 30.03      
Jun 18 00:53 S 6 10 Clear CLR 80 75     85%   85 30.06 30.04      
Jun 17 23:53 S 6 10 Clear CLR 82 75     79%   89 30.06 30.05      
Jun 17 22:53 S 6 10 Clear CLR 83 75     77%   90 30.06 30.05      
Jun 17 21:53 SSW 8 10 Clear CLR 86 74     67%   94 30.05 30.03      
Jun 17 20:53 S 8 10 Clear CLR 85 75     72%   93 30.02 30.01      
Jun 17 19:53 S 7 10 Clear CLR 88 76     68%   99 30.01 30      
Jun 17 18:53 S 9 10 Clear CLR 91 75     60%   102 30 29.99      
Jun 17 17:53 S 10 10 Clear CLR 92 76     60%   104 30.01 30      
Jun 17 16:53 SSW 10 10 Mostly Clear FEW048 94 75     54%   106 30.02 30.01      
Jun 17 15:53 SSW 11 10 Mostly Clear FEW050 95 76     54%   108 30.03 30.02      
Jun 17 14:53 S 11 10 Mostly Clear FEW048 94 76     56%   107 30.04 30.02      
Jun 17 13:53 SSE 13 10 Clear CLR 93 76     58%   106 30.05 30.04      
Jun 17 12:53 S 7 10 Mostly Cloudy SCT042 BKN055 91 77     64%   105 30.06 30.04      
Jun 17 11:53 S 3 10 Mostly Clear FEW037 90 77     66%   103 30.07 30.05      
Jun 17 10:53 SSW 8 10 Clear CLR 90 77     66%   103 30.07 30.06      
Jun 17 09:53 S 8 10 Clear CLR 86 78     77%   98 30.07 30.06      
Jun 17 08:53 SSE 6 10 Clear CLR 84 77     80%   94 30.07 30.06      
Jun 17 07:53 Calm 10 Clear CLR 81 76     85%   87 30.07 30.06      
Jun 17 06:53 SSE 5 10 Clear CLR 78 76     93%   80 30.06 30.04      
Jun 17 05:53 Calm 10 Clear CLR 76 76     100%   78 30.03 30.02      
Jun 17 03:53 Calm 10 Clear CLR 77 76     96%   79 29.98 29.97      
Jun 17 02:53 Calm 10 Clear CLR 78 76     93%   80 29.98 29.97      
Jun 17 01:53 Calm 10 Clear CLR 80 76     87%   85 29.99 29.98      
Jun 17 00:53 Calm 10 Clear CLR 80 75     85%   85 30 29.99      
Jun 16 22:53 SSE 6 10 Clear CLR 84 75     74%   92 30 29.98      
Jun 16 21:53 SE 6 10 Clear CLR 85 76     75%   94 29.98 29.97      
Jun 16 19:53 S 7 10 Clear CLR 90 76     64%   102 29.94 29.93      
Jun 16 18:53 S 7 10 Clear CLR 92 75     58%   103 29.94 29.93      
Jun 16 17:53 SSW 8 10 Clear CLR 94 74     53%   104 29.94 29.93      
Jun 16 16:53 S 9 10 Clear CLR 94 74     53%   104 29.94 29.93      
Jun 16 15:53 S 9 10 Clear CLR 96 74     49%   107 29.95 29.94      
Jun 16 14:53 S 10 10 Mostly Clear FEW060 95 75     53%   107 29.96 29.95      
Jun 16 13:53 SSE 8 10 Mostly Clear FEW046 FEW060 93 76     58%   106 29.96 29.95      
Jun 16 12:53 SSW 8 10 Mostly Clear FEW050 93 76     58%   106 29.98 29.97      
Jun 16 11:53 S 9 10 Clear CLR 91 75     60%   102 29.99 29.98      
Jun 16 10:53 SW 5 10 Clear CLR 91 75     60%   102 30 29.98      
Jun 16 09:53 3 10 Clear CLR 89 76     65%   100 30.01 29.99      
Jun 16 08:53 S 5 10 Clear CLR 85 76     75%   94 30.01 30      
Jun 16 07:53 S 5 10 Clear CLR 80 76     87%   85 30.01 30      
Jun 16 06:53 Calm 10 Clear CLR 77 75     94%   79 30 29.99      
Jun 16 05:53 Calm 10 Clear CLR 74 74     100%   76 29.99 29.98      
Jun 16 04:53 Calm 10 Clear CLR 74 74     100%   76 29.97 29.96      
Jun 16 03:53 Calm 10 Clear CLR 75 74     96%   77 29.96 29.95      
Jun 16 02:53 Calm 10 Clear CLR 77 74     90%   79 29.95 29.94      
Jun 16 01:53 Calm 10 Clear CLR 77 75     94%   79 29.96 29.95      
Jun 16 00:53 E 3 10 Clear CLR 79 74     85%   83 29.96 29.95      
Jun 15 23:53 S 5 10 Clear CLR 80 75     85%   85 29.95 29.94      
Jun 15 22:53 S 3 10 Clear CLR 81 75     82%   87 29.95 29.94      
Jun 15 21:53 SSW 7 10 Clear CLR 83 75     77%   90 29.95 29.94      
Jun 15 20:53 SSE 5 10 Clear CLR 85 75     72%   93 29.92 29.91      
Jun 15 19:53 S 11 10 Clear CLR 87 74     65%   95 29.92 29.91      
Jun 15 18:53 SE 10 10 Mostly Clear FEW060 92 73     54%   101 29.91 29.9      
Jun 15 17:53 S 7 10 Clear CLR 95 72     48%   104 29.91 29.89      
Jun 15 16:53 SSE 8 10 Clear CLR 95 71     46%   103 29.91 29.9      
Jun 15 15:53 S 10 10 Clear CLR 95 74     51%   106 29.92 29.91      
Jun 15 14:53 S 8 10 Mostly Clear FEW055 93 75     56%   105 29.94 29.92      
Jun 15 13:53   10 Mostly Clear FEW050 92 73     54%   101 29.95 29.94      
Jun 15 12:53 S 8 10 Mostly Clear FEW048 93 75     56%   105 29.97 29.96      
Jun 15 11:53 SSE 7 10 Mostly Clear FEW055 91 78     66%   106 29.99 29.98      
Jun 15 10:53 S 6 10 Clear CLR 91 77     64%   105 30 29.98      
Jun 15 09:53 SSE 5 10 Clear CLR 87 79     77%   101 30.01 30      
Jun 15 08:53 S 5 10 Partly Cloudy SCT055 84 77     80%   94 30.02 30      
May 14 17:53 SW 9 10 Clear CLR 90 66     45%   93 29.88 29.86      
May 14 04:53 WSW 5 10 Clear   71 68     90%   72 29.99 29.98      
Notice The following observation data may not be complete
May 13 23:53 Calm 10 Clear CLR   67      %     29.99 29.98      
May 13 11:53 SW 17 10 Mostly Clear FEW055 90 68     49%   94 30.08 30.06      
May 12 08:53 SW 14 10 Clear CLR 77 67     71%   78 30.09 30.08      
May 12 02:53 S 6 10 Clear CLR 71 60     68%   71 29.98 29.97      
Jun 10 21:53 S 6 10 Clear CLR 75 62     64%   75 29.97 29.96      
Jun 10 11:53 SW 10 10 Partly Cloudy SCT050 83 59     44%   83 30.01 30.01      
Jun 09 23:53 Calm 10 Clear CLR 62 58     86%     29.95 29.94      
Jun 08 22:53 Calm 10 Clear CLR 63 56     78%     29.93 29.92      
Jun 08 06:53 NNE 6 10 Clear CLR 64 55     73%     30.01 30      
Jun 06 11:53 E 7 10 Mostly Clear FEW003 82 68     63%   85 29.84 29.83      
Jun 06 01:53 Calm 4 Fog/Mist CLR 69 67     93%     29.8 29.79